Regional Weather Roundup
Issued by NWS

Home | Current Version | Previous Version | Text Only | Print | Product List | Glossary Off
Versions: 1 2 3 4 5 6 7 8 9 10 11 12 13 14 15 16 17 18 19 20 21 22 23 24 25 26 27 28 29 30 31 32 33 34 35 36 37 38 39 40 41 42 43 44 45 46 47 48 49 50

000
ASUS45 KTFX 221710
RWRMT
MONTANA REGIONAL WEATHER ROUNDUP
NATIONAL WEATHER SERVICE GREAT FALLS MT
1100 AM MDT SAT JUL 22 2017

NOTE: "FAIR" INDICATES FEW OR NO CLOUDS BELOW 12000 FEET WITH NO
SIGNIFICANT WEATHER AND/OR OBSTRUCTIONS TO VISIBILITY.

MTZ001>007-043-221800-
WEST OF THE DIVIDE

CITY           SKY/WX    TMP DP  RH WIND       PRES   REMARKS
KALISPELL      SUNNY     73  47  39 S6        30.19F
MISSOULA       SUNNY     70  35  27 CALM      30.23F
BUTTE          SUNNY     71  27  19 NW6       30.30F
MULLAN PASS    SUNNY     62  35  36 VRB5      30.35S
ANACONDA         N/A     66  34  30 N6        30.28S
DEER LODGE       N/A     68  34  28 CALM      30.30S
EUREKA           N/A     79  39  24 MISG      30.15F
HAMILTON         N/A     66  37  34 CALM      30.24S
LIBBY            N/A     72  41  33 CALM      30.17F
$$

MTZ008-052>055-221800-
SOUTHWEST MONTANA

CITY           SKY/WX    TMP DP  RH WIND       PRES   REMARKS
BOZEMAN        SUNNY     74  34  23 VRB3      30.24F
DILLON         SUNNY     71  36  27 N5        30.26F
W YELLOWSTONE  SUNNY     68  28  22 CALM      30.34F
ENNIS          SUNNY     72  28  20 NE5       30.32F
THREE FORKS      N/A     74  38  27 CALM      30.19F
$$

MTZ009-010-012-014-046-048-049-054-221800-
EAST SLOPES AND CENTRAL MONTANA

CITY           SKY/WX    TMP DP  RH WIND       PRES   REMARKS
CUT BANK       SUNNY     75  39  27 NW7       30.15F
GREAT FALLS    SUNNY     75  35  23 VRB5      30.17F
MALMSTROM AFB  SUNNY     74  36  24 W9        30.16F
HELENA         SUNNY     80  26  13 W10G22    30.20F
CHOTEAU          N/A     75  34  22 CALM      30.19S
$$

MTZ011-013-016-021-045-047-050-051-221800-
NORTH CENTRAL MONTANA

CITY           SKY/WX    TMP DP  RH WIND       PRES   REMARKS
HAVRE          SUNNY     76  46  34 NW6       30.11F
LEWISTOWN      SUNNY     76  34  21 W7        30.18F
N BAR RANCH      N/A     77  32  19 NE6G14    30.21F
CHINOOK          N/A     73  48  40 CALM      30.11F
$$

MTZ017>020-022>027-061-062-221800-
NORTHEAST MONTANA

CITY           SKY/WX    TMP DP  RH WIND       PRES   REMARKS
GLASGOW        SUNNY     75  49  39 NW16G25   30.07F
JORDAN           N/A     80  43  26 NW13G20   30.10F
SIDNEY         SUNNY     76  50  40 NW18G30   30.02R
WOLF POINT     SUNNY     78  47  33 NW17G23   30.05F
MALTA          SUNNY     77  50  38 W12G21    30.09S
PLENTYWOOD       N/A     72  50  46 W14G23    30.02R
POPLAR           N/A     73  48  40 W15G24    30.05S
$$

MTZ028>42-056>058-221800-
SOUTHCENTRAL AND SOUTHEAST MONTANA

CITY           SKY/WX    TMP DP  RH WIND       PRES   REMARKS
BAKER          SUNNY     80  38  22 NW13G24   30.10S
BILLINGS       MOSUNNY   75  33  21 SE3       30.16F
LIVINGSTON     SUNNY     78  31  17 NW7       30.21F
MILES CITY     SUNNY     82  36  19 NW8       30.10S
BIG TIMBER     SUNNY     79  27  14 SW13G18   30.21F
FORSYTH          N/A     81  37  21 CALM      30.11S
LAUREL           N/A     76  36  23 CALM      30.14F
$$

REGIONAL REPORTS...DAKOTAS

CITY           SKY/WX    TMP DP  RH WIND       PRES   REMARKS
WILLISTON      SUNNY     76  50  40 W22G29    30.00F
MINOT          SUNNY     79  54  41 NW14      29.93S
DICKINSON      SUNNY     82  43  25 W22G32    30.01S
BEACH            N/A     79  39  24 NW20G29   30.09S
CROSBY           N/A     73  52  46 NW12G20   29.99S
TIOGA            N/A     73  50  43 NW20G26   30.00S
WATFORD CITY     N/A     75  50  41 NW17G26   30.00R
BISMARCK       SUNNY     85  50  29 W12       29.95F
GRAND FORKS    MOSUNNY   80  59  48 W20       29.84R
FARGO          SUNNY     82  65  56 W17G24    29.85S
BUFFALO SD       N/A     83  39  21 NW16      30.03S
RAPID CITY     SUNNY     83  43  24 N12       30.08S
$$

REGIONAL REPORTS...WYOMING/IDAHO/WASHINGTON

CITY           SKY/WX    TMP DP  RH WIND       PRES   REMARKS
GILLETTE       SUNNY     82  32  16 N7        30.17S
SHERIDAN       SUNNY     78  35  21 CALM      30.18F
BUFFALO WY     SUNNY     78  29  16 N8        30.23F
CODY           SUNNY     75  34  22 VRB5      30.24F
YELLOWSTONE LA   N/A     62  43  49 E3        30.43S
IDAHO FALLS    SUNNY     71  48  43 CALM      30.23F
BOISE          SUNNY     76  45  33 NW7       30.15S
SPOKANE        MOSUNNY   75  42  30 S8        30.19F
$$

REGIONAL REPORTS...ALBERTA

CITY           SKY/WX    TMP DP  RH WIND       PRES   REMARKS
EDMONTON       SUNNY     70  55  60 NW2       30.01S
CALGARY        MOSUNNY   72  43  35 S8        30.08F
LETHBRIDGE     PTSUNNY   77  43  29 W10G18    30.10F
MEDICINE HAT   PTSUNNY   73  52  46 SW8       30.08F
WATERTON GATE    N/A     72  45  37 SW13G18     N/A
CARDSTON         N/A     75  43  31 W10G20      N/A
MILK RIVER       N/A     77  41  27 W10         N/A
ONEFOUR          N/A     75  43  31 NW7         N/A
$$

REGIONAL REPORTS...SASKATCHEWAN

CITY           SKY/WX    TMP DP  RH WIND       PRES   REMARKS
SWIFT CURRENT  MOSUNNY   68  52  56 NW14G24   30.06F
REGINA         MOSUNNY   70  55  60 NW15G21   29.99F
SASKATOON      CLOUDY    63  57  82 CALM      30.03S
CYPRESS HILLS    N/A     66  48  52 W7          N/A
VAL MARIE        N/A     73  48  40 NW15G24     N/A
ROCKGLEN         N/A     68  48  49 NW14G21     N/A
ASSINIBOIA       N/A     72  59  64 S6          N/A
$$



USA.gov is the U.S. government's official web portal to all federal, state and local government web resources and services.